sat.trackr.live / text

‹ back to catalog

FLOCK 4G-5

NORAD 62663 · 2025-009BG

PAYLOAD ACTIVE UNKNOWN

§ Identity

Operator
Country
US
Launch date
2025-01-14
Launch site
AFWTR
Launch vehicle
Mass (kg)
RCS (m²)

Purposes: earth_obs

External: N2YO · Heavens-Above · Gunter

§ Orbital elements

Epoch: 2026-09-19T10:57:00.331776Z

Period
94.00 min
Inclination
97.3972°
Eccentricity
0.0002627
Mean motion
15.31884560 rev/d
Perigee alt
468.4 km
Apogee alt
472.0 km
Semi-major
6,848.3 km
B*
1.9207e-4
RAAN
344.6425°
Arg perigee
358.8165°
Mean anomaly
1.3070°
Rev number
9,336

§ Raw data

FLOCK 4G-51 62663U 25009BG  26262.45625384  .00005835  00000+0  19207-3 0  99962 62663  97.3972 344.6425 0002627 358.8165   1.3070 15.31884560 93366

JSON: /api/v1/satellites/62663 · /tle

For live sub-satellite position, see the globe view (requires WebGL).

§ Visibility from observer

Set your observer location to see the next 7 days of passes ≥ 10°. The values pass through the URL so the page stays shareable.

No JS? Fill the form by hand. The geolocation button needs JavaScript.